CW5542 Weather Reports


time (UTC)temp
F
wind
direction
speed
knots
gust
knots
rain 1hr
in
rain 24hr
in
rain mn
in
humidity
%
barometer
mb
20260506153958 50 303 0.0 0.0 0.00 0.00 0.00 43 1012.1
20260506152957 49 297 0.0 0.0 0.00 0.01 0.00 44 1012.0
20260506151957 49 309 0.0 1.7 0.00 0.02 0.00 47 1012.0
20260506150956 49 335 0.0 7.0 0.00 0.02 0.00 45 1011.8
20260506145954 49 328 5.2 13.9 0.00 0.02 0.00 45 1011.8
20260506144953 49 315 0.0 13.9 0.00 0.02 0.00 46 1011.8
20260506143952 48 319 0.0 8.7 0.00 0.02 0.00 50 1011.6
20260506141951 47 311 0.0 10.4 0.00 0.02 0.00 48 1011.6
20260506140950 48 308 1.7 12.2 0.00 0.02 0.00 49 1011.3
20260506135949 47 330 0.0 0.0 0.00 0.02 0.00 52 1011.0
20260506133947 46 312 0.0 1.7 0.00 0.02 0.00 52 1010.9
20260506131946 45 308 0.0 0.0 0.00 0.02 0.00 58 1011.0
20260506130945 45 317 0.0 0.0 0.00 0.02 0.00 58 1011.1
20260506125944 45 310 0.0 0.0 0.00 0.02 0.00 59 1010.8
20260506122941 43 312 0.0 0.0 0.00 0.02 0.00 62 1010.4
20260506121941 43 31 0.0 0.0 0.00 0.02 0.00 63 1010.3
20260506115940 42 316 0.0 0.0 0.00 0.02 0.00 67 1010.0
20260506114939 42 308 0.0 0.0 0.00 0.02 0.00 67 1009.7
20260506114008 41 308 0.0 0.0 0.00 0.02 0.00 70 1009.6
20260506113007 41 139 0.0 0.0 0.00 0.02 0.00 71 1009.6
20260506111006 41 139 0.0 0.0 0.00 0.02 0.00 72 1009.3
20260506110006 41 139 0.0 0.0 0.00 0.02 0.00 70 1009.2
20260506105005 41 139 0.0 0.0 0.00 0.02 0.00 68 1009.1
20260506104005 42 139 0.0 0.0 0.00 0.02 0.00 67 1009.1
20260506103005 42 139 0.0 0.0 0.00 0.02 0.00 65 1008.8
20260506102004 43 139 0.0 0.0 0.00 0.02 0.00 64 1008.7
20260506101003 43 139 0.0 0.0 0.00 0.02 0.00 64 1008.8
20260506100002 44 139 0.0 0.0 0.00 0.02 0.00 62 1008.7
20260506095002 44 138 0.0 0.0 0.00 0.02 0.00 62 1008.9
20260506094001 44 138 0.0 0.0 0.00 0.02 0.00 62 1008.7
20260506093001 44 4 0.0 0.0 0.00 0.02 0.00 61 1008.6
20260506091002 45 0 0.0 0.0 0.00 0.02 0.00 60 1008.2
20260506090001 45 343 0.0 0.0 0.00 0.02 0.00 61 1008.1
20260506085000 45 343 0.0 0.0 0.00 0.02 0.00 60 1008.1
20260506084000 45 343 0.0 0.0 0.00 0.02 0.00 61 1008.2
20260506081957 45 304 0.0 0.0 0.00 0.02 0.00 60 1007.8
20260506072953 46 316 0.0 0.0 0.00 0.02 0.00 61 1008.2
20260506070951 46 316 0.0 0.0 0.00 0.02 0.00 61 1008.0
20260506061946 46 308 0.0 0.0 0.00 0.02 0.00 60 1008.1
20260506060945 46 306 0.0 0.0 0.00 0.02 0.00 59 1008.2
20260506051010 47 308 0.0 0.0 0.00 0.02 0.00 60 1008.1
20260506045008 47 308 0.0 0.0 0.00 0.02 0.00 60 1007.7
20260506044008 47 297 0.0 0.0 0.00 0.03 0.00 60 1008.0
20260506043007 47 292 0.0 0.0 0.00 0.03 0.00 61 1008.0
20260506040004 47 289 0.0 0.0 0.00 0.03 0.00 61 1007.8
20260506035003 47 289 0.0 0.0 0.00 0.03 0.03 61 1007.8
20260506034002 47 289 0.0 0.0 0.00 0.05 0.03 61 1007.7
20260506033001 47 289 0.0 0.0 0.00 0.10 0.03 60 1007.6
20260506030959 47 289 0.0 0.0 0.00 0.12 0.03 59 1007.6